www.pogodaiklimat.ru

Погода и климат >> Архив погоды >> Россия >> Красноярский край >> Назимово


ПОГОДА в Назимово

  • Прогноз погоды в Назимово
  • Монитор погоды в Назимово

АРХИВ ПОГОДЫ в Назимово

Время (UTC), дата Ветер
(напр.,м/с)
 
Видим.   Явления Облачность Т
(С)
Тd
(С)
f
(%)
Тe
(С)
Тes
(С)
Комфортность P
(гПа)
Po
(гПа)
Тmin
(С)
Tmax
(С)
R
(мм)
R24
(мм)
S
(см)
06 9.01 ЮВ 4 20 км {ливн. осадки} 10/0 2000 м
[As op]
-13.5 -15.5 85 -21 -21 1005.7 996.9
09 9.01 ЮВ 3 50 км {ливн. осадки} 9/3 600 м
[Cb calv Ac As]
-11.9 -13.2 90 -18 -18 1003.8 995.1
12 9.01 ЮВ 3 н/о слаб. ливневой снег 10/10 600 м
[Cb calv]
-11.2 -12.5 90 -17 -17 1002.9 994.3 -11.0 0.6
15 9.01 Ю 2 н/о слаб. ливневой снег 10/10 600 м
[Cb cap]
-10.1 -11.4 90 -15 -15 1002.3 993.7
18 9.01 ЮЗ 2 н/о слаб. снег 10/0 2000 м
[As op]
-8.7 -10.2 89 -13 -13 1002.4 993.9
21 9.01 ЮЗ 2 н/о слаб. снег 10/0 2000 м
[As op]
-9.1 -11.1 85 -14 -14 1003.1 994.5
00 10.01 ЮЗ 2 н/о слаб. снег 10/0 2000 м
[As op]
-9.8 -12.4 81 -14 -14 1004.6 995.9 -11.5 2 66
03 10.01 ЮЗ 4 н/о слаб. снег 10/0 2000 м
[As op]
-12.1 -14.1 85 -19 -19 1007.8 999.1
06 10.01 СЗ 4 2000 м снег 10/8 300 м
[Frnb Ac As]
-14.6 -16.6 85 -22 -22 1011.2 1002.4
09 10.01 З 3
{10}
50 км {снег, метель} 10/0 2000 м
[Ac As]
-17.7 -21.1 75 -25 -25 1015.7 1006.7
12 10.01 штиль 0 н/о {снег, метель} ясно -25.7 -28.1 80 -26 -26 1018.7 1009.3 -9.9 0.3
15 10.01 ЮВ 1 н/о слаб. снег 10/0 2000 м
[As trans]
-27.3 -29.2 84 -31 -31 опасность
обморожения
1020.5 1011.1
18 10.01 ЮВ 1 н/о слаб. снег 10/0 2000 м
[As trans]
-27.9 -30.3 80 -32 -32 опасность
обморожения
1021.9 1012.5
21 10.01 штиль 0 н/о {снег} 10/0 2000 м
[As trans]
-31.8 -34.8 75 -32 -32 опасность
обморожения
1024.1 1014.5
00 11.01 штиль 0 н/о {снег} ясно -34.9 -37.1 80 -35 -35 опасность
обморожения
1026.2 1016.4 -35.1 0.0 66
03 11.01 Ю 1 н/о ясно -37.6 -40.5 74 -43 -43 опасность
обморожения
1028.9 1019.0 -37.8
06 11.01 ЮВ 2 50 км 3/0
[Ci fib]
-34.5 -37.4 75 -43 -42 опасность
обморожения
1030.1 1020.3
09 11.01 ЮВ 1 50 км 9/0
[Cc]
-32.2 -35.3 74 -37 -37 опасность
обморожения
1029.9 1020.2
12 11.01 ЮВ 2 н/о слаб. снег 9/0 2000 м
[As trans Ci fib]
-29.1 -31.6 79 -36 -36 опасность
обморожения
1029.5 1019.9 -29.0 0.0
15 11.01 ЮВ 3 н/о слаб. снег 10/0
[As op]
-27.3 -29.8 79 -36 -36 опасность
обморожения
1028.4 1018.9
18 11.01 ЮВ 3 н/о слаб. снег 10/0 2000 м
[As op]
-27.5 -30.0 79 -37 -37 опасность
обморожения
1027.6 1018.1
21 11.01 ЮВ 2 н/о слаб. снег 10/0
[As op]
-27.8 -30.3 79 -35 -35 опасность
обморожения
1025.2 1016.7
00 12.01 ЮВ 3 н/о слаб. снег 10/0 2000 м
[As trans]
-26.9 -29.3 80 -36 -36 опасность
обморожения
1024.6 1015.1 -27.8 0.8 66
03 12.01 ЮВ 2 10 км слаб. снег 10/0
[As op]
-27.4 -29.8 80 -34 -34 опасность
обморожения
1024.0 1014.6
06 12.01 штиль 0 20 км в посл. час снег 9/0 2000 м
[As op Ci fib]
-26.3 -28.7 80 -26 -26 1023.9 1014.6
09 12.01 СЗ 2 50 км ясно -27.0 -29.5 79 -34 -34 опасность
обморожения
1025.3 1015.8
12 12.01 СЗ 1 н/о ясно -34.5 -36.8 79 -39 -39 опасность
обморожения
1029.4 1019.6 -25.2 0.4
15 12.01 штиль 0 н/о ясно -36.7 -39.4 76 -37 -37 опасность
обморожения
1033.3 1023.4
18 12.01 СЗ 2 н/о ясно -35.1 -38.0 75 -43 -43 опасность
обморожения
1037.1 1027.2
21 12.01 штиль 0 н/о ясно -38.8 -41.8 73 -39 -39 опасность
обморожения
1040.7 1030.6
00 13.01 штиль 0 н/о ясно -41.2 -43.8 76 -41 -41 опасность
обморожения
1043.1 1033.0 -41.2 66
03 13.01 штиль 0 н/о дымка ясно -41.8 -44.4 76 -42 -42 опасность
обморожения
1045.4 1035.1 -41.8
06 13.01 ЮЗ 2 20 км 9/0
[Ci fib]
-37.8 -40.5 76 -47 -46 опасность
обморожения
1046.5 1036.4
09 13.01 ЮВ 3 20 км 9/0
[As trans Ci fib]
-32.9 -35.8 75 -43 -43 опасность
обморожения
1046.0 1036.1
12 13.01 ЮВ 3 н/о 9/0
[Ci fib]
-31.3 -34.3 75 -41 -41 опасность
обморожения
1044.6 1034.8 -31.2
15 13.01 ЮВ 4 н/о 8/0
[Cs]
-30.7 -33.6 76 -42 -42 опасность
обморожения
1043.2 1033.5
18 13.01 ЮВ 5-10
{10}
н/о позёмок 10/0
[As trans]
-26.6 -29.0 80 -38 -38 опасность
обморожения
1040.0 1030.4
21 13.01 ЮВ 5-10
{11}
н/о позёмок 10/0
[Ac As]
-25.0 -27.4 80 -36 -36 опасность
обморожения
1036.5 1027.0
00 14.01 ЮВ 5
{10}
н/о слаб. снег {метель} 10/0
[As op]
-23.7 -26.3 79 -35 -35 опасность
обморожения
1033.9 1024.6 -33.0 0.3 65
03 14.01 ЮВ 5 4000 м слаб. снег {метель} 10/0
[As op]
-21.1 -23.6 80 -31 -31 опасность
обморожения
1034.9 1025.6
06 14.01 ЮВ 4 10 км в посл. час снег {метель} 10/0
[Ac As]
-18.2 -20.8 80 -27 -27 1029.8 1020.7
09 14.01 ЮВ 3 20 км 10/0 2000 м
[Ac As]
-15.4 -18.1 80 -22 -22 1029.5 1020.5
12 14.01 ЮВ 3 н/о 3/0 2000 м
[Ac lent]
-15.7 -17.6 85 -22 -22 1028.7 1019.7 -15.2 1
15 14.01 ЮВ 2 н/о 8/0 2000 м
[Ac trans]
-13.4 -15.4 85 -18 -18 1027.8 1018.8
18 14.01 ЮВ 2 н/о 6/0 2000 м
[Ac lent]
-17.6 -19.5 85 -23 -23 1027.4 1018.3
00 15.01 ЮВ 2 н/о н/о -17.8 -19.9 84 -18.7
03 15.01 ЮВ 3 н/о 9/0
[Ci fib]
-16.7 -18.0 90 -24 -24 1023.1 1014.1
06 15.01 штиль 0 50 км ?/? -13.5 -16.2 80 -14 -14 1020.6 1011.7
09 15.01 ЮВ 3 50 км 9/0
[Ci fib]
-12.4 -15.1 80 -18 -18 1017.4 1008.6
12 15.01 ЮВ 3 50 км 9/0
[Ci fib]
-12.4 -15.1 80 -18 -18 1017.4 1008.6
15 15.01 ЮВ 3 н/о 10/0
[Cs]
-12.1 -14.8 80 -18 -18 1015.3 1006.5 -11.6
18 15.01 ЮВ 4 н/о 10/0
[Cs]
-12.2 -14.9 80 -19 -19 1013.6 1004.9
21 15.01 ЮВ 2 н/о слаб. снег 10/0
[As op]
-13.2 -15.2 85 -18 -18 1013.5 1004.7
00 16.01 ЮВ 2 н/о слаб. снег 10/0 2000 м
[As op]
-13.3 -15.3 85 -18 -18 1014.9 1006.0 -13.4 0.7 63
03 16.01 ЮВ 1 10 км слаб. снег 10/0 2000 м
[Ac As]
-14.4 -15.7 90 -17 -17 1016.9 1008.0 -14.5

 

Местоположение метеостанции Назимово (Красноярский край, Россия): широта 59.50 долгота 91.02 высота над уровнем моря 67 м.

В архиве по умолчанию представлена погода в Назимово за последнюю неделю. Архивные данные за месяц целиком и за предыдущие месяцы, начиная с января 2011 года, Вы можете получить, выбрав интересующий диапазон дат из раскрывающегося списка и нажав кнопку "Ввод!".


*Определитесь, кто Вы:
робот инопланетянин человек

Внимание! Время в таблицах - всемирное. Для получения местного времени необходимо прибавить поправку, которая равна 7 ч.

Смотрите также архив погоды в соседних городах и на ближайших метеорологических станциях:

Погода в Ярцево (Красноярский край, Россия) (97 км)
Погода в Александровском Шлюзе (Красноярский край, Россия) (98 км)
Погода в Енисейске (Красноярский край, Россия) (134 км)
Погода в Северо-Енисейском (Красноярский край, Россия) (149 км)
Погода в Лосиноборске (Красноярский край, Россия) (152 км)
Погода в Сыме (Красноярский край, Россия) (175 км)
Погода в Ворогово (Красноярский край, Россия) (187 км)
Погода в Стрелке (Красноярский край, Россия) (195 км)
Погода в Усть-Озерном (Томская область, Россия) (199 км)
Погода в Вельмо (Красноярский край, Россия) (215 км)

Пояснения к столбцам:

Ветер - указаны скорость ветра в м/с - средняя за 10 мин, порывы в срок и между сроками (в фигурных скобках) и направление, откуда дует ветер: С - северный, СВ - северо-восточный, В - восточный, ЮВ - юго-восточный, Ю - южный, ЮЗ - юго-западный, З - западный, СЗ - северо-западный.
Видимость - горизонтальная дальность видимости в метрах или километрах. При видимости от 1 до 10 км при отсутствии осадков обычно наблюдается дымка, при ухудшении видимости до 1 км и менее - туман. В сухую погоду видимость может ухудшаться дымом, пылью или мглою.
Явления - указаны атмосферные явления, наблюдавшиеся в срок или в последний час перед сроком; фигурными скобками обозначены явления, наблюдавшиеся между сроками (за 1-3 часа до срока); квадратными скобками обозначены град или гололедные отложения с указанием их диаметра в мм.
Облачность - указаны через наклонную черту общая и нижняя облачность в баллах и высота нижней границы облаков в метрах; квадратными скобками обозначены формы облаков: Ci - перистые, Cs - перисто-слоистые, Cc - перисто-кучевые, Ac - высококучевые, As - высокослоистые, Sc - слоисто-кучевые, Ns - слоисто-дождевые, Cu - кучевые, Cb - кучево-дождевые. Подробнее классификацию облаков см. в Атласе облаков (PDF).
T - Температура воздуха - температура, измеренная на высоте 2 м над землей.
Td - Температура точки росы - температура, при понижении до которой содержащийся в воздухе водяной пар достигнет насыщения.
f - Относительная влажность воздуха - влажноcть воздуха, измеренная на высоте 2 м над землей.
Te - Эффективная температура - температура, которую ощущает одетый по сезону человек в тени. Характеристика душности погоды. При расчете учитывается влияние влажности воздуха и скорости ветра на теплоощущения человека.
Tes - Эффективная температура на солнце - температура, которую ощущает человек, с поправкой на солнечный нагрев. Характеристика знойности погоды. Зависит от высоты солнца над горизонтом, облачности и скорости ветра. Ночью, в пасмурную погоду, а также при ветре 12 м/с и более поправка равна нулю.
P - Атмосферное давление - приведенное к уровню моря атмосферное давление.
Po - Атмосферное давление - измеренное на уровне метеостанции атмосферное давление.
Tmin - Минимальная температура - минимум температуры воздуха на высоте 2 м над землей.
Tmax - Максимальная температура - максимум температуры воздуха на высоте 2 м над землей.
R - Количество осадков - Количество выпавших осадков за период времени, мм. При наведении курсора мыши на число - период времени, за который выпало указанное количество осадков.
R24 - Количество осадков - Количество выпавших осадков за 24 часа, мм.
S - Снежный покров - Высота снежного покрова, см. При наведении курсора мыши на число - состояние снежного покрова и степень покрытия местности в баллах.